|
NORAD ID: 27662 Int'l Code: 1991-015N
Perigee: 475.5 km
Apogee: 24,772.5 km
Inclination: 6.3 °
Period: 434.2 minutes
Semi major axis: 18995 km
Launch date: March 2, 1991
Source: France (FR)
Note: This is SATELLITE DEBRIS
Two Line Element Set (TLE):
1 27662U 91015N 13138.67488852 .00000198 00000-0 42139-3 0 1490
2 27662 006.3046 049.4959 6395607 270.9567 211.5630 03.31622264162169
Source:
NASA's NSSDC Master Catalog entry for ARIANE 44LP DEB
|